Regional Weather Roundup
Issued by NWS

Home | Current Version | Previous Version | Graphics & Text | Print | Product List | Glossary On
Versions: 1 2 3 4 5 6 7 8 9 10 11 12 13 14 15 16 17 18 19 20 21 22 23 24 25 26 27 28 29 30 31 32 33 34 35 36 37 38 39 40 41 42 43 44 45 46 47 48 49 50
000
ASUS43 KMPX 240801
RWRMN
WEATHER ROUNDUP FOR MINNESOTA
NATIONAL WEATHER SERVICE TWIN CITIES/CHANHASSEN MN
200 AM CST SAT FEB 24 2018


NOTE: "FAIR" INDICATES FEW OR NO CLOUDS BELOW 12,000 FEET WITH NO
SIGNIFICANT WEATHER AND/OR OBSTRUCTIONS TO VISIBILITY. N/A MEANS
CURRENT SKY AND/OR WEATHER CONDITIONS ARE NOT AVAILABLE.

MNZ060>063-068>070-240900-
   Twin Cities Metro

CITY           SKY/WX    TMP DP  RH WIND       PRES   REMARKS
TWIN CITIES    FAIR      14  11  87 CALM      30.26S
ST PAUL        FAIR      13  12  96 W3        30.27F
CRYSTAL        FAIR       7   4  87 NW5       30.24F WCI  -2
BLAINE         FAIR       9   5  85 CALM      30.24F FOG
LAKEVILLE      FAIR       7   7 100 S3        30.26R
EDEN PRAIRIE   FAIR      13   8  81 CALM      30.25S
SOUTH ST PAUL  FAIR      10   7  87 CALM      30.27R
LAKE ELMO      FAIR       3   1  92 CALM      30.25F FOG
$$
MNZ001>005-007-008-013>017-022>024-027-028-240900-
   Northwest Minnesota

CITY           SKY/WX    TMP DP  RH WIND       PRES   REMARKS
BEMIDJI        FAIR       1  -2  86 SW6       30.18S WCI -10
HALLOCK        FAIR       1   0  92 S12       30.14F WCI -15
ROSEAU         FAIR       3   0  85 S8        30.15F WCI -10
WARROAD        FAIR       3   1  92 SW9       30.15F WCI -11
THIEF RVR FALL FAIR       0  -3  87 S10       30.18F WCI -16
CROOKSTON      FAIR      -2  -6  84 S8        30.20F WCI -17
FOSSTON        FAIR      -6  -9  84 S6        30.19F WCI -18
DETROIT LAKES  FAIR      -2  -6  84 CALM      30.20F
MOORHEAD       FAIR      -4  -9  77 SE6       30.21F WCI -16
PARK RAPIDS    FAIR      -1  -7  75 CALM      30.18F
MAHNOMEN       FAIR       1  -2  87 S7        30.19F WCI -11
$$
MNZ006-009>011-018-025>026-240900-
   North Central Minnesota

CITY           SKY/WX    TMP DP  RH WIND       PRES   REMARKS
BAUDETTE       FAIR       2  -1  88 S5        30.16S WCI  -8
FLAG ISLAND    FAIR      -4  -8  84 SE3       30.14S
INTL FALLS     FAIR       1  -1  91 SW5       30.18S WCI  -9
WASKISH        FAIR       7   3  85 SW8       30.19S WCI  -6
LONGVILLE      FAIR      -6  -9  84 CALM      30.21S
GRAND RAPIDS   FAIR       2  -1  88 CALM      30.22S
CRANE LAKE     FAIR      -4  -8  84 CALM      30.22S
ORR            FAIR       1  -4  78 CALM      30.16S
COOK             N/A      3   0  85 CALM      30.19S
WALKER         FAIR       1  -2  89 CALM      30.19F
$$
MNZ012-019>021-037-240900-
   Northeast Minnesota

CITY           SKY/WX    TMP DP  RH WIND       PRES   REMARKS
DULUTH         FAIR      13   8  81 W6        30.18S WCI   4
ELY            FAIR       3   1  92 CALM      30.18R
HIBBING        FAIR      -4  -5  95 W3        30.20R
EVELETH        FAIR       0  -4  85 CALM      30.21R
DULUTH HARBOR  FAIR      18  12  79 SW6       30.25S WCI   9
TWO HARBORS    FAIR      16  10  79 W5        30.18S WCI   9
SILVER BAY     FAIR      18  10  73 CALM      30.17S
GRAND MARAIS     N/A     22  12  65 W7        30.20R WCI  13
G MARAIS ARPRT FAIR      12   7  79 W5        30.12S WCI   4
$$
MNZ029>031-032-039>041-046>048-054>057-064-240900-
   West Central Minnesota

CITY           SKY/WX    TMP DP  RH WIND       PRES   REMARKS
FERGUS FALLS   FAIR      -2  -6  84 E5        30.21F WCI -12
WHEATON        HAZE     -15 -20  76 E5        30.22F VSB<1/4 WCI -27
MORRIS         FOG       -9 -15  77 NE6       30.19F VSB 1/4 WCI -23
ALEXANDRIA     FAIR      -2  -5  87 N5        30.20F FOG     WCI -12
ELBOW LAKE     FAIR     -10 -13  83 S5        30.21F WCI -21
WADENA         FAIR      -2  -4  92 CALM      30.19F
GLENWOOD       FAIR       3   1  92 N9        30.19F WCI -11
APPLETON       CLOUDY    -8 -13  77 CALM      30.22F
BENSON         CLOUDY   -13 -18  77 CALM      30.22F
ORTONVILLE     HAZE      -9 -15  77 CALM      30.20F VSB 1/2
MADISON        HAZE      -6 -11  77 CALM      30.22F VSB 1
WILLMAR        FAIR      -2  -8  78 N7        30.22F WCI -16
$$
MNZ033>034-036-042>043-049>051-058-059-240900-
   Central Minnesota

CITY           SKY/WX    TMP DP  RH WIND       PRES   REMARKS
ST CLOUD       FAIR       0  -4  83 CALM      30.24F
SAUK CENTRE    FAIR      -5  -8  86 N5        30.21F WCI -16
PAYNESVILLE    FAIR      -7 -10  86 CALM      30.22F
AITKIN         FAIR       0  -6  78 CALM      30.21F
PINE RIVER     FAIR      -6  -8  92 CALM      30.24F
BRAINERD       FAIR       1  -5  75 CALM      30.22F
STAPLES        FAIR      -8 -11  84 CALM      30.21F FOG
LONG PRAIRIE   FAIR      -8 -13  77 CALM      30.21F
LITTLE FALLS   FAIR       0  -8  71 CALM      30.24F
LITCHFIELD     FAIR       3   1  92 NW3       30.22F
BUFFALO        FAIR       3  -1  84 CALM      30.25F
MAPLE LAKE     FAIR       4   2  89 CALM      30.24F
HUTCHINSON     FAIR      -8 -12  82 CALM      30.24S
$$
MNZ037-044-045-052-053-240900-
   East Central Minnesota

CITY           SKY/WX    TMP DP  RH WIND       PRES   REMARKS
PRINCETON      FOG        1  -2  85 CALM      30.24F VSB 1/2
CAMBRIDGE        N/A      7   0  72 CALM      30.25F
RUSH CITY      FAIR       5   2  86 CALM      30.25F
MOOSE LAKE     FAIR      12  10  92 W3        30.21S
HINCKLEY         N/A      5   3  92 CALM      30.24S FOG
CLOQUET        FAIR      12   7  79 W5        30.20S WCI   4
MCGREGOR       FAIR       9   5  85 CALM      30.22S
$$
MNZ071>073-080-081-089-090-097-098-240900-
   Southwest Minnesota

CITY           SKY/WX    TMP DP  RH WIND       PRES   REMARKS
MONTEVIDEO     FOG       -9 -13  84 CALM      30.22F VSB 1/2
GRANITE FALLS  FOG       -8 -12  80 CALM      30.25F VSB 1/2
CANBY          HAZE      -8 -12  82 CALM      30.22F VSB 3/4
MARSHALL       FLURRIES   3  -1  83 SE5       30.23F WCI  -6
REDWOOD FALLS  FOG        1   0  95 SW3       30.24F VSB 1/4
OLIVIA         CLOUDY     1   0  92 S5        30.24R WCI  -8
PIPESTONE      SNOW       9   7  92 CALM      30.16F VSB 1/4
WORTHINGTON    SNOW      13  10  88 E7        30.19F VSB 1/4 WCI   3
JACKSON        SNOW      12   9  85 N3        30.21F VSB 1/4
TRACY          CLOUDY     9   7  92 CALM      30.21F FOG
SLAYTON        FOG       13  11  92 CALM      30.19F VSB 1/4
$$
MNZ065>067-074>077-082>085-091>093-240900-
   South Central Minnesota

CITY           SKY/WX    TMP DP  RH WIND       PRES   REMARKS
MANKATO        SNOW       4   1  88 SE7       30.26F VSB 1/2 WCI  -8
NEW ULM        FOG        1  -2  85 CALM      30.24F VSB 1/4
ST JAMES       FOG        3   1  92 CALM      30.25F VSB<1/4
FAIRMONT       FOG        7   4  87 N3        30.24F VSB 1/4
GLENCOE        FAIR       4   1  86 CALM      30.25R
FARIBAULT      FOG        3   1  92 CALM      30.25F VSB<1/4
OWATONNA       FOG        5   1  85 CALM      30.24F VSB<1/4
WASECA         FOG        7   3  85 CALM      30.25F VSB 1/4
ALBERT LEA     FOG       12  10  92 CALM      30.24F VSB<1/4
$$
MNZ078>079-086>088-094>096-240900-
   Southeast Minnesota

CITY           SKY/WX    TMP DP  RH WIND       PRES   REMARKS
ROCHESTER      FAIR       8   7  95 S5        30.24S FOG     WCI   0
RED WING       FAIR       7   1  78 CALM      30.28R HAZE
STANTON        LGT SNOW   3  -1  83 CALM      30.25F
DODGE CENTER   FOG        3   0  85 CALM      30.23F VSB 1/4
WINONA         FAIR      12  10  92 CALM      30.28F FOG
AUSTIN         FOG       10   7  85 CALM      30.24F VSB<1/4
PRESTON        FAIR      15  13  92 CALM      30.26S FOG
$$
ABBREVIATIONS USED IN REMARKS
   TC - TEMPERATURES IN CELSIUS
  WCI - WIND CHILL INDEX
   HX - HEAT INDEX
  VSB - VISIBILITY
$$




USA.gov is the U.S. government's official web portal to all federal, state and local government web resources and services.